RH
18 17 20 25 24 27 30 31 27 31 27 15 18 16 16 15 14 12 10 10 9 8 9 9 9 8 9 9 10 10 10 10 11 13 18 19 23 28 27 32 33 39 39 41
20 19 34 28 30 31 31 32 29 28 29 19 16 13 12 13 12 11 12 10 10 9 8 9 10 10 10 10 11 11 11 12 13 16 16 19 23 31 36 36 36 41 43 44
25 27 34 35 37 36 33 30 28 24 24 18 17 13 14 14 13 12 12 12 11 11 11 10 12 12 12 12 12 12 14 15 17 19 21 24 31 33 38 39 40 43 46 49
27 36 36 35 32 31 26 29 26 27 27 23 22 14 16 18 16 16 16 15 14 14 13 13 14 14 13 13 14 17 20 23 25 25 25 28 34 36 39 40 44 48 53 57
33 34 35 34 35 34 31 34 33 32 31 29 26 26 18 21 21 20 18 17 16 16 15 15 14 15 15 16 19 23 26 29 32 33 31 30 34 38 40 43 51 54 58 60
40 40 38 40 38 40 37 40 40 39 38 33 30 33 20 25 25 23 20 16 14 15 15 15 16 16 17 19 25 28 30 32 34 38 35 34 39 42 49 50 56 60 62 62
48 46 47 46 47 46 46 46 45 44 42 38 38 36 27 27 25 21 17 16 16 16 17 18 18 19 21 23 28 28 31 39 43 43 41 45 48 48 60 59 61 63 63 63
53 50 51 49 49 49 48 47 46 43 41 40 38 32 27 25 21 19 17 18 19 19 20 21 21 23 26 33 44 48 50 54 54 57 60 64 63 58 68 70 68 69 67 66
44 48 46 45 42 40 37 36 37 35 32 31 26 24 22 22 20 19 20 17 17 20 25 50 48 47 58 56 60 63 64 70 73 77 76 76 75 72 76 79 75 74 73 75
28 31 31 31 30 30 29 27 26 27 26 24 19 20 21 22 19 21 25 23 20 21 32 40 47 54 63 66 73 74 76 73 79 78 80 86 91 87 86 89 90 88 87 90
19 17 18 18 19 20 23 23 26 33 26 25 24 19 22 17 16 23 42 44 34 38 54 58 54 62 80 81 88 88 82 79 86 88 83 87 98 99 95 94 97 94 93 99
70 56 34 36 36 37 37 23 30 40 22 53 54 48 30 32 37 47 62 84 72 71 92 93 100 100 99 96 96 99 100 94 94 94 92 89 100 100 100 99 99 100 100 100
99 98 98 66 80 95 99 100 100 98 86 64 86 57 80 74 71 69 99 100 95 84 93 100 100 100 100 99 100 100 99 99 95 88 84 83 86 98 100 100 99 100 100 100
88 100 100 97 87 86 100 100 100 100 100 93 100 99 100 99 95 100 100 100 100 99 100 100 99 100 99 99 98 100 100 96 89 87 94 100 100 99 100 100 100 99 99 100
100 100 100 97 95 98 100 100 96 97 100 100 100 100 100 100 100 100 100 100 100 100 98 99 98 92 92 97 100 100 100 99 93 81 90 96 100 100 99 96 100 100 100 100
100 100 100 99 100 100 100 100 100 100 100 100 99 100 100 100 100 100 97 90 87 79 82 100 100 100 100 99 100 100 95 79 97 100 100 100 100 100 100 100 100 100 100 100
5 5 7 29 91 100 97 74 88 98 99 100 100 100 100 100 100 99 100 100 100 100 100 99 94 91 78 84 81 80 58 61 93 100 100 100 100 100 100 100 98 100 91 94
6 6 6 5 5 6 6 23 73 96 100 92 82 65 67 75 84 86 83 89 85 98 100 97 72 74 100 100 97 84 98 100 100 100 100 100 100 100 100 100 100 100 100 100
10 11 12 14 14 18 23 33 52 54 78 100 100 100 100 100 100 100 100 100 98 98 98 100 100 100 94 98 100 100 100 100 100 100 100 100 100 100 100 100 100 100 100 100
15 18 24 27 30 35 52 86 100 100 100 100 100 100 100 100 100 100 100 99 98 97 99 100 100 99 100 100 100 100 100 100 100 100 100 100 100 100 100 100 100 100 100 100
40 43 44 39 37 32 30 30 28 25 26 31 35 39 42 40 45 46 38 32 34 37 43 61 74 74 76 78 80 87 91 94 100 99 99 99 100 100 100 100 100 100 100 100
40 36 38 34 34 37 45 41 53 53 50 48 48 44 43 40 46 45 46 48 48 53 78 87 100 96 96 100 100 100 100 100 100 100 100 100 100 100 100 100 100 100 100 100
43 51 46 47 48 60 65 79 78 80 82 77 63 52 72 100 87 75 75 82 89 78 81 91 96 100 100 99 98 100 100 100 100 100 100 100 100 100 100 100 100 100 100 100
94 89 91 88 87 93 96 93 84 77 74 91 81 73 77 87 84 80 90 89 85 86 87 89 92 99 100 100 100 100 100 100 100 100 100 100 100 100 100 100 100 100 100 100
100 96 96 95 94 96 92 90 84 79 85 93 94 90 87 85 87 80 78 74 71 70 67 65 66 70 75 79 83 88 93 96 98 100 100 100 100 100 100 100 100 100 100 100
86 81 71 73 74 69 64 64 69 75 76 76 74 68 60 54 46 37 29 24 20 17 14 13 13 13 13 14 15 18 29 53 62 63 65 69 77 86 96 100 100 98 94 99
Wind_Speed
34 34 29 32 35 34 34 36 34 30 36 38 31 33 25 29 33 31 29 30 28 25 27 28 30 30 31 31 31 32 34 35 35 36 37 39 39 40 39 36 35 34 34 34
37 34 32 35 37 39 38 37 35 36 37 42 35 38 30 27 31 31 30 31 30 29 31 29 29 33 33 33 33 35 36 36 37 39 42 43 43 43 42 40 37 36 36 36
40 35 37 36 38 40 40 41 38 39 38 43 41 44 33 29 30 30 32 33 32 31 33 34 33 34 34 36 36 37 37 39 41 43 44 44 44 44 43 41 38 37 37 37
44 35 39 38 39 39 41 39 40 39 42 44 45 52 37 32 33 31 30 34 34 35 35 36 36 37 37 37 38 39 40 41 43 45 46 46 45 45 44 42 39 39 39 38
39 37 36 38 36 41 42 41 42 43 44 48 46 50 47 41 41 37 36 34 35 36 37 39 38 39 39 40 41 42 43 45 47 49 50 49 47 46 44 43 42 41 42 43
40 43 41 41 42 41 45 45 44 46 49 54 47 48 50 48 48 42 42 40 39 39 40 42 41 41 42 44 45 47 49 50 51 51 51 49 47 46 45 44 45 45 45 45
47 45 47 46 45 45 45 48 50 53 55 54 51 54 52 49 50 49 49 45 46 47 45 46 43 45 47 48 50 51 53 53 53 52 51 48 47 46 46 47 47 48 48 48
53 51 50 50 50 52 52 53 54 57 56 57 58 59 54 53 52 52 53 55 52 51 49 46 47 50 50 52 52 54 54 52 49 47 47 46 47 47 48 49 50 51 50 51
58 58 58 57 58 57 57 58 53 57 57 58 59 58 56 55 56 57 57 57 57 55 50 46 51 54 55 55 55 54 52 48 47 46 47 47 48 49 50 52 52 53 54 54
62 65 59 60 60 61 62 61 61 60 61 63 62 61 58 58 58 60 61 61 61 59 55 54 57 58 58 60 57 55 53 52 50 49 48 49 50 52 52 54 55 57 57 57
65 67 63 64 63 63 62 63 63 63 65 67 64 62 62 62 63 65 61 61 63 63 61 62 62 61 58 59 57 57 58 57 53 51 51 52 54 56 58 58 60 60 60 61
68 69 68 67 63 63 64 65 65 66 66 64 63 63 64 63 64 63 63 62 64 63 61 62 60 58 53 54 56 55 54 54 54 55 55 56 57 59 61 61 61 62 64 66
64 66 68 69 64 60 60 60 62 63 62 67 63 61 57 58 59 63 61 60 63 65 64 62 60 58 57 54 54 56 55 56 58 59 61 61 62 63 63 64 63 64 68 70
64 63 61 61 65 64 60 45 39 41 46 47 53 54 55 56 55 56 61 65 65 64 64 62 60 60 61 60 61 60 61 62 64 64 64 65 66 66 65 64 65 66 69 71
59 63 64 62 56 55 62 63 65 63 61 55 56 53 55 55 59 65 64 62 61 62 64 65 65 66 67 67 66 67 69 72 75 75 71 71 69 71 71 70 68 71 72 73
68 67 64 64 61 66 65 68 73 71 71 74 74 75 71 66 66 64 67 71 75 76 71 69 68 71 76 78 78 80 80 79 75 77 75 74 72 73 72 73 71 75 74 74
61 64 69 73 73 77 78 78 70 70 71 71 73 73 69 72 76 78 76 70 71 75 80 80 84 86 83 85 84 81 84 81 78 78 77 74 77 75 76 79 79 72 74 76
53 53 53 56 54 57 63 69 78 79 81 81 81 83 85 88 89 85 80 76 79 82 85 87 89 84 80 84 87 90 80 80 77 78 80 76 79 83 80 78 81 81 84 82
43 43 41 39 42 43 44 44 47 49 50 52 54 57 61 66 66 60 61 62 63 67 69 69 69 70 75 73 66 68 71 78 79 79 81 79 82 79 79 82 88 86 84 85
35 36 34 34 37 39 40 40 41 44 46 47 47 48 50 52 56 61 65 66 67 61 57 57 59 61 57 55 56 54 54 52 49 52 62 67 74 76 74 77 79 79 78 75
31 32 34 36 37 39 40 43 46 47 48 52 56 59 62 65 67 70 69 67 68 67 63 68 73 75 77 77 76 75 76 72 66 65 59 59 57 57 56 57 57 57 58 58
32 32 32 33 35 36 38 40 41 41 43 45 47 47 49 52 53 54 53 48 47 48 49 50 51 51 52 54 57 58 60 61 62 65 63 62 66 61 61 58 55 56 58 59
26 28 30 32 34 33 33 33 33 33 36 38 39 38 40 40 39 40 39 41 42 42 44 44 44 48 51 52 53 54 55 54 54 52 54 56 56 58 58 57 57 57 59 61
23 25 27 29 30 30 30 32 34 37 37 37 38 39 38 40 45 44 43 43 44 45 46 47 48 49 49 51 51 53 54 54 52 52 54 56 56 56 56 58 59 60 62 64
19 19 21 22 24 25 27 28 29 30 31 32 35 36 37 37 39 40 42 45 47 49 51 53 54 55 56 59 61 63 63 64 63 63 63 64 64 65 66 67 68 68 68 71
23 23 24 26 28 30 32 33 33 34 36 37 37 39 42 44 45 46 47 49 51 52 53 54 56 58 60 63 66 68 71 72 73 74 74 74 74 74 75 76 76 76 76 79
Wind_Direction
264 267 275 271 270 274 276 277 280 283 278 276 275 274 269 274 277 276 277 277 276 270 263 271 273 273 277 280 283 284 286 288 291 291 293 294 294 292 290 287 282 276 272 270
270 272 271 273 275 276 274 275 277 275 274 278 279 276 276 274 273 279 277 277 277 277 274 271 273 276 278 281 283 284 287 289 290 290 292 293 293 290 288 284 281 276 272 270
271 274 271 270 273 274 276 277 276 277 276 277 280 276 279 278 278 275 277 278 276 274 276 276 278 278 280 281 282 283 285 287 289 289 291 293 292 286 283 282 278 275 272 271
270 272 272 271 272 273 271 275 278 277 278 280 279 279 279 281 278 277 272 275 277 278 276 276 277 278 279 279 280 281 284 287 289 290 290 290 289 285 280 278 276 273 272 271
272 268 269 269 270 271 275 276 277 277 277 276 275 284 288 285 283 282 277 274 275 276 275 277 278 279 280 278 277 281 285 287 288 288 286 285 284 281 277 275 273 271 271 272
266 269 268 271 270 271 274 276 276 275 275 274 281 285 278 284 286 287 283 283 279 280 281 283 283 281 278 277 280 282 285 287 288 286 283 281 278 275 272 271 270 270 270 271
268 268 272 270 272 272 273 274 275 274 274 278 282 280 280 283 287 290 289 289 287 287 287 285 283 279 276 276 278 280 282 285 284 281 277 273 272 270 268 267 267 267 269 270
271 269 270 268 268 270 270 272 273 277 280 279 279 279 283 286 288 289 287 289 290 289 288 287 283 281 279 278 281 283 283 280 278 273 271 269 268 267 265 264 265 267 268 269
270 270 271 271 272 274 274 273 275 274 274 275 276 278 282 285 284 285 285 282 282 283 287 289 284 281 282 283 284 284 282 279 276 272 270 267 265 264 263 263 264 265 267 268
271 271 269 269 271 274 276 276 276 277 277 278 276 278 283 281 281 279 276 276 277 279 280 278 278 278 280 283 284 281 278 276 273 271 270 269 266 264 263 263 264 265 267 268
273 272 268 270 271 273 275 276 276 276 275 278 280 279 280 278 278 278 278 279 280 281 281 278 275 277 279 278 277 276 275 274 272 270 270 269 267 266 264 264 264 266 267 267
275 275 273 274 272 274 274 274 274 274 276 277 275 271 273 274 273 275 273 272 273 274 274 275 278 278 272 271 271 270 269 271 273 274 273 271 268 266 265 265 265 264 265 266
273 274 276 273 272 272 272 274 273 272 273 274 273 277 273 272 269 268 265 267 270 273 273 272 272 268 270 268 268 270 271 273 275 275 275 272 269 267 265 265 265 265 265 264
268 268 269 270 271 271 271 264 262 264 266 267 266 268 267 265 259 259 265 270 271 271 269 268 267 267 269 272 272 271 272 274 276 275 272 270 269 266 265 266 267 267 265 262
263 261 257 259 263 262 264 263 261 256 258 254 258 260 263 259 256 267 268 268 269 271 272 272 271 271 271 270 270 271 271 275 278 274 270 267 267 267 266 267 266 264 262 261
254 253 254 257 254 255 254 261 267 263 261 259 261 263 265 264 264 265 268 268 272 277 273 267 268 270 272 272 271 272 274 274 270 269 266 265 265 264 266 261 262 263 265 263
266 265 262 257 252 255 262 265 262 259 256 257 261 260 263 266 268 273 276 272 270 265 265 266 268 271 272 270 270 272 275 273 268 265 264 264 265 260 261 262 265 261 265 264
271 271 271 272 267 264 264 259 257 259 261 263 263 264 264 266 268 272 272 267 263 262 267 270 271 271 262 267 273 273 272 267 262 263 262 260 262 259 260 261 259 261 262 262
270 271 271 272 271 270 266 264 263 263 265 265 266 265 263 262 261 264 268 269 268 266 267 268 269 271 273 271 267 265 261 258 258 259 258 256 255 255 257 259 260 256 255 257
273 273 272 273 273 271 271 270 269 268 266 263 261 262 264 267 270 271 276 279 280 276 271 269 269 264 263 269 268 270 266 268 271 270 267 266 264 266 266 263 262 264 266 267
273 276 279 279 277 275 274 272 272 272 273 272 272 273 275 276 276 277 282 284 284 283 284 281 277 275 274 276 274 275 278 276 275 277 273 276 268 274 268 263 261 261 261 260
279 278 277 275 275 274 275 277 278 280 280 280 281 281 281 281 283 284 286 285 284 281 279 276 274 273 271 268 265 264 264 265 263 261 264 264 265 265 265 260 261 262 259 261
283 283 283 283 285 285 285 283 281 285 289 286 288 291 284 276 284 286 285 283 282 282 284 285 285 284 281 280 279 275 271 268 264 264 262 259 257 257 256 253 253 253 254 255
300 300 297 294 292 290 289 287 286 289 291 286 281 284 283 282 281 285 286 284 285 286 285 285 285 284 283 281 278 275 272 270 270 268 267 267 266 265 262 260 261 260 260 261
308 312 312 310 306 304 302 299 299 298 296 293 291 289 290 290 291 290 291 291 290 289 288 287 286 284 282 281 279 278 277 275 273 271 271 270 269 268 267 267 266 265 266 268
311 313 314 314 312 309 306 304 303 302 301 300 297 296 295 293 292 292 293 293 292 291 290 289 289 288 287 285 284 282 280 277 274 274 274 273 272 271 270 270 270 271 270 270